THOR ABLESTAR DEB, 48817

Orbit data source: Space-Track

THOR ABLESTAR DEB, 48817 is space debris in LEO originally from a launch on Thu, 29 Jun 1961 UTC launched from the Air Force Eastern Test Range (AFETR). Debris objects in space refer to the collection of defunct objects orbiting the Earth. Examples of debris include non-operational satellites, rocket bodies, and fragments generated from explosions, collisions, or faulty payload assembly.

Loading next visibility...
Identifier
48817, 1961-015MV
Orbit
LEO
Country
Flag of USUS
Related business
Manufacturer
Unknown
Mission
Spacecraft
Bus & Motor
Unknown
Mass
Unknown
Launch date (UTC)
1961-06-29 (65 years ago)
Launch vehicle
Unknown
Launch site
Air Force Eastern Test Range (AFETR)
Object type
Payload
Rocket body
Debris
Shape & HBR
Unknown shape, 0.1 m
Radar Cross Section
Small (<0.1 m²)

Expand to show TLE details & history
Last TLE update: 6 days ago

TLE from 6 days ago
0 THOR ABLESTAR DEB
1 48817U 61015MV  26167.84371812  .00000095  00000-0  12116-3 0  9995
2 48817  65.8425   6.1325 0213745 218.2278 140.3473 13.89955924637215
Epoch: 2026-06-16T20:14Z
TLE epoch observation values (Epoch: 2026-06-16T20:14:57.245Z)
Latitude
-0.00009°
Longitude
157.28401°
Altitude
1,052.373 km
Speed
7.265 km/s
True Right ascension
00h 24m 31s
True Declination
0° 00' 00"
Sunlit
Object was in daylight at epoch
Visualization orbit readout
Latitude
Unknown
Longitude
Unknown
Altitude
Unknown
Speed
Unknown
Apparent Right ascension
Unknown
Apparent Declination
Unknown
Sunlit
N/A
Visualization observer readout
Local Sidereal Time
21:36:11
Azimuth
Unknown
Elevation
Unknown
Doppler factor
Unknown
Orbital elements
Apogee altitude
1,083.439 km
Perigee altitude
771.14 km
Semi-major axis
7,305.427 km
Eccentricity
0.02137
Inclination
65.8425°
RAAN
6.1325°
Arg. of periapsis
218.2278°
True anomaly
141.87859°
Mean anomaly
140.3473°
Eccentric anomaly
141.11608°
Mean motion
3.47596 °/min
Orbital period
103.57 mins
BSTAR
0.00012116
Loading maneuver chart data...
Computing Atmospheric mass density...

Documentation

Showing up to 5 results
|